Snowfall_Accumulation
0.0 0.0 0.0 0.0 0.0 0.0 0.0 0.0 0.0 0.0 0.0 0.0 0.0 0.0 0.0 0.0 0.0 0.0 0.0 0.0 0.0 0.0 0.0 0.0 0.0 0.0 0.0 0.0 0.0 0.0 0.0 0.0 0.0 0.0 0.0 0.0 0.0 0.0 0.0 0.0 0.0 0.0 0.0 0.0
0.0 0.0 0.0 0.0 0.0 0.0 0.0 0.0 0.0 0.0 0.0 0.0 0.0 0.0 0.0 0.0 0.0 0.0 0.0 0.0 0.0 0.0 0.0 0.0 0.0 0.0 0.0 0.0 0.0 0.0 0.0 0.0 0.0 0.0 0.0 0.0 0.0 0.0 0.0 0.0 0.0 0.0 0.0 0.0
0.0 0.0 0.0 0.0 0.0 0.0 0.0 0.0 0.0 0.0 0.0 0.0 0.0 0.0 0.0 0.0 0.0 0.0 0.0 0.0 0.0 0.0 0.0 0.0 0.0 0.0 0.0 0.0 0.0 0.0 0.0 0.0 0.0 0.0 0.0 0.0 0.0 0.0 0.0 0.0 0.0 0.0 0.0 0.0
0.0 0.0 0.0 0.0 0.0 0.0 0.0 0.0 0.0 0.0 0.0 0.0 0.0 0.0 0.0 0.0 0.0 0.0 0.0 0.0 0.0 0.0 0.0 0.0 0.0 0.0 0.0 0.0 0.0 0.0 0.0 0.0 0.0 0.0 0.0 0.0 0.0 0.0 0.0 0.0 0.0 0.0 0.0 0.0
0.0 0.0 0.0 0.0 0.0 0.0 0.0 0.0 0.0 0.0 0.0 0.0 0.0 0.0 0.0 0.0 0.0 0.0 0.0 0.0 0.0 0.0 0.0 0.0 0.0 0.0 0.0 0.0 0.0 0.0 0.0 0.0 0.0 0.0 0.0 0.0 0.0 0.0 0.0 0.0 0.0 0.0 0.0 0.0
0.0 0.0 0.0 0.0 0.0 0.0 0.0 0.0 0.0 0.0 0.0 0.1 0.0 0.0 0.0 0.0 0.0 0.0 0.0 0.0 0.0 0.0 0.0 0.0 0.0 0.0 0.0 0.0 0.0 0.0 0.0 0.0 0.0 0.0 0.0 0.0 0.0 0.0 0.0 0.0 0.0 0.0 0.0 0.0
0.0 0.0 0.0 0.0 0.0 0.0 0.0 0.0 0.1 0.2 0.6 0.2 0.0 0.0 0.0 0.0 0.0 0.0 0.0 0.0 0.0 0.0 0.0 0.0 0.0 0.0 0.0 0.0 0.0 0.0 0.0 0.0 0.0 0.0 0.0 0.0 0.0 0.0 0.0 0.0 0.0 0.0 0.0 0.0
0.0 0.0 0.0 0.0 0.0 0.0 0.0 0.0 0.2 1.3 0.8 0.2 0.0 0.1 0.0 0.0 0.0 0.0 0.0 0.0 0.0 0.0 0.0 0.0 0.0 0.0 0.0 0.0 0.0 0.0 0.0 0.0 0.0 0.0 0.0 0.0 0.0 0.0 0.0 0.0 0.0 0.0 0.0 0.0
0.0 0.0 0.0 0.0 0.0 0.0 0.0 0.0 0.0 0.1 2.2 1.2 0.0 0.0 0.0 0.0 0.0 0.0 0.0 0.0 0.0 0.0 0.0 0.0 0.0 0.0 0.0 0.0 0.0 0.0 0.0 0.0 0.0 0.0 0.0 0.0 0.0 0.0 0.0 0.0 0.0 0.0 0.0 0.0
0.0 0.0 0.0 0.0 0.0 0.0 0.0 0.0 0.1 0.1 3.2 1.7 0.0 0.0 0.0 0.0 0.0 0.0 0.0 0.0 0.0 0.0 0.0 0.0 0.0 0.0 0.0 0.0 0.0 0.0 0.0 0.0 0.0 0.0 0.0 0.0 0.0 0.0 0.0 0.0 0.0 0.0 0.0 0.0
0.0 0.0 0.0 0.0 0.0 0.0 0.0 0.0 0.0 0.0 0.5 1.1 0.8 0.0 0.0 0.0 0.0 0.0 0.0 0.0 0.0 0.0 0.0 0.0 0.0 0.0 0.0 0.0 0.0 0.0 0.0 0.0 0.0 0.0 0.0 0.0 0.0 0.0 0.0 0.0 0.0 0.0 0.0 0.0
0.0 0.0 1.4 0.0 0.0 0.0 0.0 0.0 0.0 0.4 0.2 0.2 0.4 0.3 0.0 0.0 0.0 0.0 0.0 0.0 0.0 0.0 0.0 0.0 0.0 0.0 0.0 0.0 0.0 0.0 0.0 0.0 0.0 0.0 0.0 0.0 0.0 0.0 0.0 0.0 0.0 0.0 0.0 0.0
0.0 0.5 3.1 0.7 0.1 0.0 0.0 0.0 0.0 0.0 0.2 0.3 3.0 0.5 0.0 0.0 0.0 0.0 0.0 0.0 0.0 0.0 0.0 0.0 0.0 0.0 0.0 0.0 0.0 0.0 0.0 0.0 0.0 0.0 0.0 0.0 0.0 0.0 0.0 0.0 0.0 0.0 0.0 0.0
nan 0.2 0.1 0.5 0.0 0.0 0.1 0.0 0.0 0.0 2.3 0.3 0.3 0.0 0.0 0.0 0.0 0.0 0.0 0.0 0.0 0.0 0.0 0.0 0.0 0.0 0.0 0.0 0.0 0.0 0.0 0.0 0.0 0.0 0.0 0.0 0.0 0.0 0.0 0.0 0.0 0.0 0.0 0.0
0.0 4.9 0.0 0.0 0.0 0.0 0.1 0.0 0.0 0.0 0.0 0.3 0.0 0.0 0.0 0.0 0.0 0.0 0.0 0.0 0.0 0.0 0.0 0.0 0.0 0.0 0.0 0.0 0.0 0.0 0.0 0.0 0.0 0.0 0.0 0.0 0.0 0.0 0.0 0.0 0.0 0.0 0.0 0.0
0.0 5.5 0.3 2.2 0.0 0.0 0.5 0.0 0.0 0.0 0.0 0.0 0.0 0.0 0.0 0.0 0.0 0.0 0.0 0.0 0.0 0.0 0.0 0.0 0.0 0.0 0.0 0.0 0.0 0.0 0.0 0.0 0.0 0.0 0.0 0.0 0.0 0.1 0.1 0.1 0.1 0.1 0.1 0.1
0.5 3.3 8.2 14.2 0.2 0.5 11.1 0.1 0.0 0.0 0.0 0.0 0.1 0.0 0.0 0.0 0.0 0.0 0.0 0.0 0.0 0.0 0.0 0.0 0.0 0.0 0.0 0.0 0.0 0.0 0.0 0.0 0.0 0.0 0.1 0.1 0.1 0.3 0.2 0.1 0.2 0.1 0.1 0.1
1.4 3.0 5.1 18.9 8.3 46.9 1.7 0.0 0.0 0.0 0.0 0.0 0.0 0.0 0.0 0.0 0.0 0.0 0.0 0.0 0.0 0.0 0.0 0.0 0.0 0.0 0.0 0.0 0.0 0.0 0.0 0.0 0.1 0.2 0.3 0.2 0.2 0.8 0.1 0.1 0.1 0.2 0.1 0.2
0.0 0.3 17.0 40.7 21.9 1.0 0.0 0.0 0.0 0.1 0.1 0.0 0.0 0.0 0.0 0.0 0.0 0.0 0.0 0.0 0.0 0.0 0.0 0.0 0.0 0.0 0.0 0.0 0.0 0.0 0.1 0.1 0.1 0.1 0.2 0.3 0.6 1.6 0.5 2.7 0.5 0.6 1.3 0.9
0.3 0.3 3.6 31.5 35.5 31.5 0.1 0.1 0.0 0.0 1.5 0.1 0.0 0.0 0.0 0.0 0.7 0.0 0.0 0.0 0.0 0.0 0.0 0.0 0.0 0.0 0.0 0.0 0.1 0.1 0.2 0.2 0.2 0.2 0.1 0.3 0.8 3.1 2.8 1.4 2.7 3.5 3.7 3.6
8.6 17.7 30.2 24.7 27.6 9.1 0.3 0.1 0.0 3.6 0.6 0.6 0.2 0.0 0.0 0.4 0.1 0.0 0.0 0.0 0.0 0.0 0.0 0.0 0.0 0.0 0.1 0.1 0.2 0.2 0.3 0.4 0.3 0.7 0.7 0.9 1.4 4.0 2.3 2.9 2.4 4.2 4.3 2.6
2.5 10.9 25.6 21.6 33.0 37.4 0.2 0.1 0.8 0.8 0.3 0.5 0.1 0.1 0.1 0.0 0.0 0.0 0.0 0.0 0.0 0.0 0.0 0.0 0.4 0.3 0.3 0.4 0.4 0.3 0.3 0.4 0.7 1.3 1.9 3.1 4.8 4.0 3.9 7.9 5.0 6.5 6.1 5.9
5.6 1.1 5.6 2.0 4.5 0.1 0.3 0.3 0.0 0.1 0.2 0.1 0.1 0.1 0.0 0.0 0.0 0.0 0.0 0.0 0.0 0.1 0.3 0.5 0.9 0.8 0.6 0.8 1.3 2.4 0.9 0.8 1.3 5.1 7.4 7.6 6.4 6.1 5.9 9.4 6.1 7.5 6.1 6.9
0.8 0.1 2.8 1.9 0.1 0.0 0.0 0.0 0.0 0.0 0.1 0.0 0.0 0.1 0.0 0.0 0.1 0.2 0.3 0.3 0.2 0.3 0.3 0.9 1.7 1.7 1.7 2.5 3.6 4.0 2.8 2.8 11.5 10.6 5.9 4.4 5.5 3.7 5.0 5.9 7.5 10.2 7.7 6.4
0.2 0.4 0.9 1.6 0.0 0.0 0.0 0.0 0.0 0.0 0.1 0.1 0.2 0.1 0.0 0.1 0.3 0.2 0.6 0.6 0.2 0.3 0.7 1.2 1.9 2.1 3.4 3.8 4.7 6.0 5.7 5.7 7.0 7.1 3.9 4.9 5.9 7.0 4.0 3.2 6.7 5.5 3.6 8.2
0.0 0.1 0.3 1.4 0.0 0.0 0.0 0.0 0.0 0.0 0.1 0.1 0.1 0.2 0.2 0.2 0.2 0.3 0.5 0.3 0.6 0.8 1.0 1.7 2.1 2.9 4.2 5.2 5.3 6.6 6.9 6.8 7.1 4.1 5.3 4.9 4.9 4.2 3.7 3.9 3.6 nan nan nan
Water_Equivalent
0.00 0.00 0.00 0.00 0.00 0.00 0.00 0.00 0.00 0.00 0.00 0.00 0.00 0.00 0.00 0.00 0.00 0.00 0.00 0.00 0.00 0.00 0.00 0.00 0.00 0.00 0.00 0.00 0.00 0.00 0.00 0.00 0.00 0.00 0.00 0.00 0.00 0.00 0.00 0.00 0.00 0.00 0.00 0.00
0.00 0.00 0.00 0.00 0.00 0.00 0.00 0.00 0.00 0.00 0.00 0.00 0.00 0.00 0.00 0.00 0.00 0.00 0.00 0.00 0.00 0.00 0.00 0.00 0.00 0.00 0.00 0.00 0.00 0.00 0.00 0.00 0.00 0.00 0.00 0.00 0.00 0.00 0.00 0.00 0.00 0.00 0.00 0.00
0.00 0.00 0.00 0.00 0.00 0.00 0.00 0.00 0.00 0.00 0.00 0.00 0.00 0.00 0.00 0.00 0.00 0.00 0.00 0.00 0.00 0.00 0.00 0.00 0.00 0.00 0.00 0.00 0.00 0.00 0.00 0.00 0.00 0.00 0.00 0.00 0.00 0.00 0.00 0.00 0.00 0.00 0.00 0.00
0.00 0.00 0.00 0.00 0.00 0.00 0.00 0.00 0.00 0.00 0.00 0.00 0.00 0.00 0.00 0.00 0.00 0.00 0.00 0.00 0.00 0.00 0.00 0.00 0.00 0.00 0.00 0.00 0.00 0.00 0.00 0.00 0.00 0.00 0.00 0.00 0.00 0.00 0.00 0.00 0.00 0.00 0.00 0.00
0.00 0.00 0.00 0.00 0.00 0.00 0.00 0.00 0.00 0.00 0.00 0.00 0.00 0.00 0.00 0.00 0.00 0.00 0.00 0.00 0.00 0.00 0.00 0.00 0.00 0.00 0.00 0.00 0.00 0.00 0.00 0.00 0.00 0.00 0.00 0.00 0.00 0.00 0.00 0.00 0.00 0.00 0.00 0.00
0.00 0.00 0.00 0.00 0.00 0.00 0.00 0.00 0.00 0.00 0.00 0.02 0.00 0.00 0.00 0.00 0.00 0.00 0.00 0.00 0.00 0.00 0.00 0.00 0.00 0.00 0.00 0.00 0.00 0.00 0.00 0.00 0.00 0.00 0.00 0.00 0.00 0.00 0.00 0.00 0.00 0.00 0.00 0.00
0.00 0.00 0.00 0.00 0.00 0.00 0.00 0.00 0.02 0.06 0.17 0.06 0.00 0.01 0.00 0.00 0.00 0.00 0.00 0.00 0.00 0.00 0.00 0.00 0.00 0.00 0.00 0.00 0.00 0.00 0.00 0.00 0.00 0.00 0.00 0.00 0.00 0.00 0.00 0.00 0.00 0.00 0.00 0.00
0.00 0.00 0.00 0.00 0.00 0.00 0.00 0.00 0.06 0.26 0.18 0.05 0.00 0.02 0.00 0.00 0.00 0.00 0.00 0.00 0.00 0.00 0.00 0.00 0.00 0.00 0.00 0.00 0.00 0.00 0.00 0.00 0.00 0.00 0.00 0.00 0.00 0.00 0.00 0.00 0.00 0.00 0.00 0.00
0.00 0.00 0.00 0.00 0.00 0.00 0.00 0.00 0.00 0.02 0.41 0.28 0.00 0.00 0.00 0.00 0.00 0.00 0.00 0.00 0.00 0.00 0.00 0.00 0.00 0.00 0.00 0.00 0.00 0.00 0.00 0.00 0.00 0.00 0.00 0.00 0.00 0.00 0.00 0.00 0.00 0.00 0.00 0.00
0.00 0.00 0.00 0.00 0.00 0.00 0.00 0.00 0.03 0.04 0.60 0.30 0.00 0.00 0.00 0.00 0.00 0.00 0.00 0.00 0.00 0.00 0.00 0.00 0.00 0.00 0.00 0.00 0.00 0.00 0.00 0.00 0.00 0.00 0.00 0.00 0.00 0.00 0.00 0.00 0.00 0.00 0.00 0.00
0.00 0.00 0.00 0.00 0.00 0.00 0.00 0.00 0.00 0.00 0.12 0.24 0.19 0.00 0.00 0.00 0.00 0.00 0.00 0.00 0.00 0.00 0.00 0.00 0.00 0.00 0.00 0.00 0.00 0.00 0.00 0.00 0.00 0.00 0.00 0.00 0.00 0.00 0.00 0.00 0.00 0.00 0.00 0.00
0.00 0.01 0.39 0.00 0.00 0.00 0.00 0.00 0.00 0.12 0.04 0.06 0.12 0.07 0.00 0.00 0.00 0.00 0.00 0.00 0.00 0.00 0.00 0.00 0.00 0.00 0.00 0.00 0.00 0.00 0.00 0.00 0.00 0.00 0.00 0.00 0.00 0.00 0.00 0.00 0.00 0.00 0.00 0.00
0.00 0.17 0.72 0.17 0.01 0.00 0.00 0.00 0.00 0.00 0.06 0.08 0.62 0.11 0.00 0.00 0.00 0.00 0.00 0.00 0.00 0.00 0.00 0.00 0.00 0.00 0.00 0.00 0.00 0.00 0.00 0.00 0.00 0.00 0.00 0.00 0.00 0.00 0.00 0.00 0.00 0.00 0.00 0.00
nan 0.06 0.04 0.13 0.00 0.00 0.02 0.00 0.00 0.00 0.52 0.09 0.08 0.01 0.00 0.00 0.00 0.00 0.00 0.00 0.00 0.00 0.00 0.00 0.00 0.00 0.00 0.00 0.00 0.00 0.00 0.00 0.00 0.00 0.00 0.00 0.00 0.00 0.00 0.00 0.00 0.00 0.00 0.00
0.00 1.49 0.02 0.00 0.00 0.00 0.02 0.01 0.00 0.00 0.00 0.08 0.00 0.00 0.00 0.00 0.00 0.00 0.00 0.00 0.00 0.00 0.00 0.00 0.00 0.00 0.00 0.00 0.00 0.00 0.00 0.00 0.00 0.00 0.00 0.00 0.00 0.00 0.00 0.00 0.00 0.01 0.01 0.01
0.01 1.72 0.09 0.56 0.00 0.00 0.13 0.00 0.00 0.00 0.00 0.00 0.00 0.00 0.00 0.00 0.00 0.00 0.00 0.00 0.00 0.00 0.00 0.00 0.00 0.00 0.00 0.00 0.00 0.00 0.00 0.00 0.00 0.00 0.00 0.00 0.01 0.02 0.02 0.02 0.03 0.02 0.02 0.02
0.22 1.10 2.11 2.69 0.04 0.11 1.67 0.03 0.00 0.00 0.00 0.00 0.02 0.00 0.00 0.00 0.00 0.00 0.00 0.00 0.00 0.00 0.00 0.00 0.00 0.00 0.00 0.00 0.00 0.00 0.00 0.00 0.00 0.01 0.02 0.03 0.03 0.05 0.03 0.02 0.03 0.03 0.02 0.02
0.53 1.07 1.60 3.90 1.77 5.74 0.30 0.00 0.00 0.00 0.00 0.00 0.00 0.00 0.00 0.00 0.00 0.00 0.00 0.00 0.00 0.00 0.00 0.00 0.00 0.00 0.00 0.00 0.00 0.00 0.00 0.01 0.02 0.04 0.07 0.05 0.04 0.13 0.02 0.02 0.02 0.03 0.02 0.04
0.01 0.12 3.59 6.08 3.25 0.22 0.00 0.00 0.01 0.02 0.02 0.00 0.00 0.00 0.00 0.00 0.00 0.00 0.00 0.00 0.00 0.00 0.00 0.00 0.00 0.00 0.00 0.00 0.00 0.01 0.02 0.02 0.02 0.02 0.04 0.05 0.09 0.19 0.07 0.31 0.08 0.09 0.19 0.15
0.09 0.11 1.08 6.03 5.36 3.91 0.03 0.02 0.00 0.01 0.33 0.02 0.01 0.00 0.00 0.00 0.19 0.00 0.00 0.00 0.00 0.00 0.00 0.00 0.00 0.00 0.00 0.01 0.01 0.02 0.03 0.03 0.03 0.03 0.02 0.04 0.11 0.38 0.31 0.17 0.31 0.43 0.49 0.47
1.23 2.90 4.32 3.47 4.37 1.61 0.06 0.03 0.00 0.52 0.12 0.14 0.06 0.01 0.01 0.13 0.04 0.00 0.00 0.00 0.00 0.00 0.00 0.00 0.00 0.01 0.02 0.03 0.03 0.03 0.03 0.04 0.05 0.08 0.08 0.11 0.17 0.46 0.27 0.34 0.31 0.46 0.49 0.29
0.33 1.40 3.47 3.05 4.66 4.79 0.06 0.03 0.15 0.18 0.08 0.13 0.02 0.02 0.03 0.01 0.00 0.00 0.00 0.00 0.00 0.00 0.00 0.01 0.05 0.04 0.04 0.05 0.05 0.05 0.04 0.05 0.09 0.17 0.22 0.35 0.55 0.48 0.47 0.91 0.55 0.75 0.70 0.69
0.77 0.19 0.94 0.36 0.75 0.02 0.07 0.07 0.01 0.02 0.06 0.03 0.02 0.02 0.00 0.00 0.00 0.00 0.00 0.00 0.00 0.03 0.04 0.07 0.11 0.09 0.07 0.09 0.14 0.25 0.09 0.09 0.13 0.52 0.77 0.79 0.72 0.70 0.68 1.07 0.66 0.90 0.75 0.88
0.17 0.02 0.54 0.34 0.03 0.01 0.00 0.00 0.00 0.00 0.02 0.01 0.01 0.02 0.00 0.00 0.01 0.04 0.06 0.04 0.03 0.05 0.05 0.11 0.20 0.18 0.17 0.25 0.33 0.40 0.26 0.25 1.22 1.11 0.56 0.42 0.54 0.43 0.54 0.76 0.96 1.31 0.97 0.79
0.05 0.09 0.19 0.30 0.01 0.00 0.00 0.00 0.00 0.00 0.02 0.04 0.04 0.03 0.00 0.02 0.06 0.05 0.10 0.09 0.04 0.04 0.08 0.13 0.20 0.21 0.31 0.31 0.38 0.50 0.44 0.47 0.66 0.70 0.35 0.47 0.68 0.79 0.43 0.37 0.70 0.60 0.40 0.93
0.00 0.01 0.06 0.22 0.00 0.00 0.00 0.00 0.00 0.00 0.01 0.02 0.03 0.04 0.04 0.04 0.04 0.06 0.08 0.05 0.09 0.10 0.12 0.17 0.19 0.23 0.32 0.38 0.38 0.49 0.62 0.61 0.64 0.36 0.53 0.52 0.52 0.47 0.41 0.41 0.38 nan nan nan
SL_Ratio
nan nan nan nan nan nan nan nan nan nan nan nan nan nan nan nan nan nan nan nan nan nan nan nan nan nan nan nan nan nan nan nan nan nan nan nan nan nan nan nan nan nan nan nan
nan nan nan nan nan nan nan nan nan nan nan nan nan nan nan nan nan nan nan nan nan nan nan nan nan nan nan nan nan nan nan nan nan nan nan nan nan nan nan nan nan nan nan nan
nan nan nan nan nan nan nan nan nan nan nan nan nan nan nan nan nan nan nan nan nan nan nan nan nan nan nan nan nan nan nan nan nan nan nan nan nan nan nan nan nan nan nan nan
nan nan nan nan nan nan nan nan nan nan nan nan nan nan nan nan nan nan nan nan nan nan nan nan nan nan nan nan nan nan nan nan nan nan nan nan nan nan nan nan nan nan nan nan
nan nan nan nan nan nan nan nan nan nan nan nan nan nan nan nan nan nan nan nan nan nan nan nan nan nan nan nan nan nan nan nan nan nan nan nan nan nan nan nan nan nan nan nan
nan nan nan nan nan nan nan nan nan nan nan 3.6 nan nan nan nan nan nan nan nan nan nan nan nan nan nan nan nan nan nan nan nan nan nan nan nan nan nan nan nan nan nan nan nan
nan nan nan nan nan nan nan nan 3.4 3.5 3.9 3.6 nan 3.2 nan nan nan nan nan nan nan nan nan nan nan nan nan nan nan nan nan nan nan nan nan nan nan nan nan nan nan nan nan nan
nan nan nan nan nan nan nan nan 3.4 5.1 4.2 3.4 3.0 3.6 nan nan nan nan nan nan nan nan nan nan nan nan nan nan nan nan nan nan nan nan nan nan nan nan nan nan nan nan nan nan
nan 0.0 nan nan nan nan nan nan nan 3.8 5.3 4.1 nan nan nan nan nan nan nan nan nan nan nan nan nan nan nan nan nan nan nan nan nan nan nan nan nan nan nan nan nan nan nan nan
nan 5.0 nan nan nan nan nan nan 3.8 3.4 5.4 5.6 nan nan nan nan nan nan nan nan nan nan nan nan nan nan nan nan nan nan nan nan nan nan nan nan nan nan nan nan nan nan nan nan
nan nan nan nan nan nan nan nan nan nan 3.7 4.5 4.4 3.6 nan nan nan nan nan nan nan nan nan nan nan nan nan nan nan nan nan nan nan nan nan nan nan nan nan nan nan nan nan nan
nan 2.5 3.6 nan nan nan nan nan nan 3.7 4.4 3.6 3.5 4.9 nan nan nan nan nan nan nan nan nan nan nan nan nan nan nan nan nan nan nan nan nan nan nan nan nan nan nan nan nan nan
nan 3.3 4.3 4.1 4.8 nan nan nan nan nan 3.4 4.5 4.9 4.5 nan nan nan nan nan nan nan nan nan nan nan nan nan nan nan nan nan nan nan nan nan nan nan nan nan nan nan nan nan nan
nan 3.4 3.4 3.5 nan nan 3.8 2.9 nan nan 4.4 3.5 3.6 2.9 nan nan nan nan nan nan nan nan nan nan nan nan nan nan nan nan nan nan nan nan nan nan nan nan nan nan nan nan nan nan
nan 3.3 2.5 2.9 nan 3.3 3.6 3.0 nan nan nan 4.3 nan nan nan nan nan nan nan nan nan nan nan nan nan nan nan nan nan nan nan nan nan nan nan nan nan nan 0.0 3.3 3.6 3.5 3.2 3.1
2.5 3.2 3.3 3.8 2.7 2.9 3.9 0.0 nan nan nan nan nan nan nan nan nan nan nan nan nan nan nan nan nan nan nan nan nan nan nan nan nan nan nan 0.0 3.4 3.6 3.6 4.1 4.5 4.2 3.9 3.8
2.5 3.0 3.9 5.3 3.8 4.2 6.7 3.2 nan nan nan nan 3.1 nan nan nan nan nan nan nan nan nan nan nan nan nan nan nan nan nan nan nan 3.3 3.7 4.0 4.0 4.3 5.0 4.8 4.9 5.2 5.1 4.9 4.7
2.6 2.8 3.2 4.9 4.7 8.2 5.5 nan nan nan nan nan nan nan nan nan nan nan nan nan nan nan nan nan nan nan nan nan nan nan 4.0 3.7 4.1 4.7 5.1 5.1 5.5 6.1 5.7 5.6 5.7 5.8 5.6 5.8
2.7 2.9 4.7 6.7 6.7 4.6 3.3 3.3 4.1 3.5 3.9 nan nan nan nan nan nan nan nan nan nan nan nan nan nan nan nan nan nan 3.5 4.5 4.3 4.8 5.1 5.6 5.8 6.6 8.1 7.0 9.0 6.7 6.6 7.0 6.3
3.1 3.0 3.3 5.2 6.6 8.0 4.5 3.9 2.5 2.6 4.6 3.6 2.7 3.3 nan 3.3 3.8 nan nan nan nan nan nan nan nan nan nan 3.3 3.6 4.7 6.2 6.6 6.9 6.5 5.9 6.7 7.9 8.3 9.1 7.9 8.8 8.1 7.5 7.7
7.0 6.1 7.0 7.1 6.3 5.7 4.2 4.1 3.8 7.0 4.9 4.2 3.4 3.0 3.0 3.3 2.8 nan nan nan nan nan nan nan nan 4.1 3.8 5.1 5.7 7.4 7.5 8.0 7.4 8.2 8.2 8.2 8.2 8.7 8.5 8.3 7.7 9.2 8.9 8.8
7.7 7.8 7.4 7.1 7.1 7.8 3.4 3.3 5.1 4.2 3.4 3.9 3.4 3.5 3.9 3.2 nan nan nan nan nan nan nan 4.6 7.1 7.4 7.1 7.2 7.5 7.6 8.1 8.1 8.2 7.8 8.4 8.8 8.7 8.4 8.2 8.6 9.1 8.6 8.7 8.6
7.2 5.7 6.0 5.6 6.0 3.7 3.9 3.8 2.8 2.8 3.6 3.4 3.7 3.6 nan nan nan nan nan nan nan 4.6 6.0 6.9 7.7 8.2 8.5 8.7 8.8 9.7 10.1 9.8 9.6 9.9 9.6 9.7 8.9 8.8 8.8 8.7 9.1 8.4 8.2 7.9
4.8 3.3 5.1 5.6 4.4 3.3 3.3 5.0 0.0 3.0 3.3 3.2 3.5 3.7 nan nan 3.8 4.8 5.3 5.8 6.5 7.1 7.4 8.0 8.6 9.4 10.2 10.2 11.0 10.1 10.9 11.1 9.4 9.5 10.4 10.5 10.2 8.6 9.2 7.7 7.9 7.7 8.0 8.1
4.6 4.1 5.0 5.4 3.3 nan nan nan nan 3.3 3.6 3.8 4.2 3.9 3.6 4.0 5.2 5.2 6.3 6.4 6.1 7.6 8.7 9.1 9.4 10.1 11.3 12.0 12.4 11.9 13.0 12.1 10.5 10.2 11.0 10.3 8.6 8.8 9.3 8.7 9.6 9.2 9.0 8.8
5.7 5.8 6.1 6.6 nan 4.2 nan nan nan 1.7 3.6 4.1 4.6 5.3 5.3 4.9 5.1 5.7 5.9 5.6 6.7 7.4 9.0 9.9 11.2 12.5 13.1 13.8 14.1 13.5 11.2 11.2 11.1 11.2 10.0 9.3 9.4 9.1 9.1 9.5 9.5 nan nan nan